Zurück zum Katalog

BRO-19

AktivWissenschaftSSO
NORAD 68422·PAYLOAD·🇫🇷 France

Gestartet Mar 30, 2026 von Vandenberg Space Force Base

Loading…

Nächste Überflüge (nächste 24 Stunden)

TLE

AktuellSource: Space-Track

Epoche: Sep 14, 2026, 02:34 UTC

1 68422U 26067G   26257.10758297  .00002907  00000-0  14089-3 0  9997
2 68422  97.4573 214.3561 0001153  64.5517 295.5837 15.19317162 25449

Verfolge BRO-19 in Echtzeit mit AllMySat

Download on the App Store